Weather History for KEST - February, 2013

Change the Weather History Date:

Sunday, February 17, 2013

  Actual Average Record
Temperature  
Mean Temperature 28 °F 21 °F  
Max Temperature 38 °F 30 °F 63 °F (1981)
Min Temperature 18 °F 12 °F -25 °F (1958)
Degree Days  
Heating Degree Days 37 44  
Month to date heating degree days 711 787  
Since 1 July heating degree days 5105 5458  
Cooling Degree Days 0 0  
Month to date cooling degree days 0 0  
Year to date cooling degree days 0 0  
Moisture  
Dew Point 22 °F    
Average Humidity 78    
Maximum Humidity 92    
Minimum Humidity 64    
Precipitation  
Precipitation 0.00 in 0.01 in 0.20 in (1998)
Month to date precipitation 0.43 0.21  
Sea Level Pressure  
Sea Level Pressure 29.86 in    
Wind  
Wind Speed 17 mph (SSE)    
Max Wind Speed 28 mph    
Max Gust Speed 33 mph    
Visibility 10 miles    
Events      
T = Trace of Precipitation, MM = Missing Value Source: NWS Daily Summary

Daily Weather History Graph

Daily Weather History Graph

Search for Another Location

Airport or City:

Trip Planner

Search our weather history database for the weather conditions in past years. The results will help you decide how hot, cold, wet, or windy it might be!

Date:

Astronomy

Feb. 17, 2013 Rise Set
Actual Time 7:13 AM CST 5:52 PM CST
Civil Twilight 6:44 AM CST 6:21 PM CST
Nautical Twilight 6:11 AM CST 6:55 PM CST
Astronomical Twilight 5:38 AM CST 7:28 PM CST
Moon 10:53 AM CST (2/17) 1:02 AM CST (2/17)
Length of Visible Light 11h 37m
Length of Day
10h 38m
Waxing Crescent, 49% of the Moon is Illuminated
Feb 17
Waxing Crescent
Feb 17
First Quarter
Feb 25
Full
Mar 4
Last Quarter
Mar 11
New

Hourly Weather History & Observations

Time (CST) Temp. Windchill Dew Point Humidity Pressure Visibility Wind Dir Wind Speed Gust Speed Precip Events Conditions
12:52 AM 19.9 °F 9.3 °F 17.1 °F 89% 30.08 in 8.0 mi South 9.2 mph - N/A   Clear
1:52 AM 19.0 °F 8.2 °F 16.0 °F 88% 30.07 in 7.0 mi South 9.2 mph - N/A   Clear
2:52 AM 19.9 °F 9.3 °F 17.1 °F 89% 30.06 in 9.0 mi South 9.2 mph - N/A   Clear
3:52 AM 19.9 °F 8.6 °F 16.0 °F 85% 30.04 in 10.0 mi SSE 10.4 mph - N/A   Partly Cloudy
4:52 AM 18.0 °F 6.1 °F 15.1 °F 88% 30.03 in 9.0 mi SSE 10.4 mph - N/A   Clear
5:52 AM 18.0 °F 4.8 °F 15.1 °F 88% 30.02 in 10.0 mi SSE 12.7 mph - N/A   Clear
6:52 AM 19.0 °F 5.6 °F 15.1 °F 85% 29.99 in 10.0 mi SSE 13.8 mph - N/A   Clear
7:52 AM 18.0 °F 4.8 °F 15.1 °F 88% 29.99 in 9.0 mi South 12.7 mph - N/A   Clear
8:52 AM 21.0 °F 8.1 °F 17.1 °F 85% 29.98 in 9.0 mi South 13.8 mph - N/A   Clear
9:52 AM 25.0 °F 11.7 °F 19.9 °F 81% 29.95 in 9.0 mi South 17.3 mph - N/A   Clear
10:52 AM 28.0 °F 14.6 °F 21.9 °F 78% 29.93 in 10.0 mi South 20.7 mph - N/A   Clear
11:52 AM 30.9 °F 18.4 °F 24.1 °F 76% 29.89 in 10.0 mi SSE 20.7 mph - N/A   Clear
12:52 PM 35.1 °F 22.7 °F 25.0 °F 67% 29.84 in 10.0 mi SSE 25.3 mph - N/A   Clear
1:52 PM 37.0 °F 25.9 °F 27.0 °F 67% 29.80 in 10.0 mi SSE 23.0 mph - N/A   Clear
2:52 PM 37.9 °F 27.3 °F 28.0 °F 68% 29.76 in 10.0 mi SSE 21.9 mph 29.9 mph N/A   Clear
3:52 PM 37.0 °F 25.9 °F 28.9 °F 73% 29.73 in 10.0 mi SSE 23.0 mph 29.9 mph N/A   Clear
4:52 PM 37.0 °F 26.7 °F 28.9 °F 73% 29.70 in 10.0 mi SE 19.6 mph - N/A   Clear
5:52 PM 35.1 °F 23.3 °F 28.0 °F 76% 29.68 in 10.0 mi SSE 23.0 mph 28.8 mph N/A   Clear
6:52 PM 35.1 °F 23.5 °F 27.0 °F 72% 29.68 in 10.0 mi SSE 21.9 mph - N/A   Clear
7:52 PM 34.0 °F 22.1 °F 27.0 °F 75% 29.66 in 10.0 mi SSE 21.9 mph 28.8 mph N/A   Clear
8:52 PM 34.0 °F 22.7 °F 27.0 °F 75% 29.63 in 10.0 mi SSE 19.6 mph - N/A   Clear
9:52 PM 36.0 °F 24.2 °F 27.0 °F 70% 29.61 in 10.0 mi South 24.2 mph 33.4 mph N/A   Clear
11:52 PM 34.0 °F 24.6 °F 28.0 °F 79% 29.59 in 10.0 mi South 13.8 mph - N/A   Clear